Simultaneous Nadir Overpasses (SNOs) Predictions

Prediction of SNOs between AQUA and NPP Satellite Orbit:

Table of predicted SNOs for the next 14.0 days since TLE Epoch: 1/4/2013
Index Date (AQUA) Time (AQUA) Lat,Lon (AQUA) SZA (AQUA ) Date (NPP) Time (NPP) Lat,Lon (NPP) SZA (NPP ) Distance(km) Time Diff (sec)
1 01/05/2013 15:44:05 -76.92, 6.01 61.56 01/05/2013 15:43:41 -76.92, 6.02 61.54 0.25 24
2 01/05/2013 16:33:17 77.55, 176.11 117.71 01/05/2013 16:34:11 77.54, 176.02 117.68 2.31 54
3 01/08/2013 07:12:06 73.86, -54.42 121.50 01/08/2013 07:10:52 73.96, -54.81 121.61 16.10 74
4 01/08/2013 08:00:27 -77.15, 122.78 62.10 01/08/2013 08:00:29 -77.15, 122.76 62.10 0.61 2
5 01/10/2013 23:27:36 76.70, 69.37 118.11 01/10/2013 23:26:48 76.70, 69.40 118.14 0.92 48
6 01/11/2013 00:16:48 -77.42,-120.27 62.75 01/11/2013 00:17:17 -77.42,-120.27 62.77 0.16 29
7 01/13/2013 15:43:54 77.06,-173.42 117.31 01/13/2013 15:43:34 77.07,-173.34 117.31 2.26 20
8 01/13/2013 16:33:07 -77.73, -3.10 63.49 01/13/2013 16:34:04 -77.73, -3.04 63.55 1.60 57
9 01/16/2013 07:11:05 -76.51, 132.85 62.48 01/16/2013 07:09:57 -76.51, 132.91 62.43 1.74 68




NCC Satellite Simultaneous Nadir Overpasses (SNOs) Prediction Service
